カタログに戻る

SL-8 DEB

運用中LEO
NORAD 22840·DEBRIS·🇷🇺 Russia

打ち上げ Feb 12, 1991 から Plesetsk Cosmodrome

Loading…

次のパス (今後24時間)

TLE

最新Source: Space-Track

元期: Sep 14, 2026, 05:39 UTC

1 22840U 91009CK  26257.23575060  .00000226  00000-0  17265-2 0  9998
2 22840  73.9553 188.0602 0169635   5.3578 148.6160 12.39996829540691

AllMySatでSL-8 DEBをリアルタイム追跡

Download on the App Store